Mooring,Latitude,Longitude,Date,Time,xCO2_SW_wet,xCO2_SW_QF,H2O_SW,xCO2_Air_wet,xCO2_Air_QF,H2O_AIR,Licor_Atm_Pressure,Licor_Temp,Percent_O2,SST,SSS,xCO2_SW_dry,xCO2_Air_dry,fCO2_SW_sat,fCO2_Air_sat,dfCO2
,Dec_Deg,Dec_Deg,MM/DD/YYYY,hh:mm:ss,umol/mol,,umol/mol,umol/mol,,umol/mol,hPa,Deg_C,,Deg_C,PSS,umol/mol,umol/mol,uatm,uatm,uatm
LaPush,47.97,-124.95,7/16/2010,19:17:00,419.0,2,2.32,384.1,2,2.27,1020.1,14.3,100.57,12.2989,31.489,420.0,385.0,415.4,380.8,34.6
LaPush,47.97,-124.95,7/16/2010,20:17:00,406.7,2,2.09,386.2,2,2.02,1020.0,15.0,101.17,12.351,31.495,407.5,387.0,403.1,382.7,20.4
LaPush,47.97,-124.95,7/16/2010,20:47:00,402.4,2,1.64,386.4,2,1.54,1020.0,15.4,101.69,12.4016,31.491,403.1,387.0,398.6,382.7,15.9
LaPush,47.97,-124.95,7/16/2010,21:17:00,409.5,2,1.59,386.7,2,1.47,1020.0,15.7,102.07,12.5077,31.490,410.1,387.3,405.6,383.0,22.6
LaPush,47.97,-124.95,7/16/2010,21:47:00,416.5,2,1.59,386.7,2,1.47,1020.1,15.9,102.35,12.4495,31.474,417.2,387.3,412.6,383.0,29.6
LaPush,47.97,-124.95,7/16/2010,22:17:00,411.7,2,1.60,386.7,2,1.47,1020.2,16.2,102.51,12.4793,31.449,412.3,387.3,407.8,383.0,24.8
LaPush,47.97,-124.95,7/16/2010,22:47:00,406.2,2,1.59,386.8,2,1.45,1020.1,16.4,102.75,12.612,31.439,406.9,387.3,402.3,383.0,19.3
LaPush,47.97,-124.95,7/17/2010,00:17:00,387.8,2,2.30,386.4,2,2.22,1019.8,16.2,103.22,12.8683,31.459,388.7,387.3,384.2,382.8,1.4
LaPush,47.97,-124.95,7/17/2010,03:17:00,360.7,2,2.41,384.3,2,2.36,1019.7,15.5,103.85,12.8527,31.483,361.6,385.2,357.4,380.7,-23.3
LaPush,47.97,-124.95,7/17/2010,06:17:00,405.5,2,2.33,384.5,2,2.28,1020.1,14.7,103.73,12.4095,31.437,406.5,385.4,402.0,381.2,20.8
LaPush,47.97,-124.95,7/17/2010,09:17:00,382.8,2,2.26,384.9,2,2.21,1020.2,14.1,103.65,12.3967,31.518,383.6,385.7,379.5,381.6,-2.1
LaPush,47.97,-124.95,7/17/2010,12:17:00,424.2,2,2.21,384.8,2,2.17,1019.9,13.7,103.28,12.2548,31.452,425.1,385.6,420.4,381.4,39.1
LaPush,47.97,-124.95,7/17/2010,15:17:00,387.3,2,2.21,384.8,2,2.16,1020.6,13.5,103.31,12.547,31.488,388.1,385.7,384.0,381.6,2.5
LaPush,47.97,-124.95,7/17/2010,18:17:00,400.7,2,2.27,385.2,2,2.20,1021.0,13.7,103.37,12.4853,31.462,401.7,386.0,397.6,382.1,15.5
LaPush,47.97,-124.95,7/17/2010,21:17:00,378.9,2,2.45,384.1,2,2.33,1020.8,14.8,103.62,12.7082,31.506,379.8,385.0,375.8,381.0,-5.1
LaPush,47.97,-124.95,7/18/2010,00:17:00,346.7,2,2.59,384.8,2,2.47,1020.1,15.8,104.55,13.1921,31.533,347.6,385.8,343.5,381.3,-37.7
LaPush,47.97,-124.95,7/18/2010,03:17:00,332.8,2,2.42,385.4,2,2.35,1019.4,15.7,105.47,13.0562,31.532,333.6,386.3,329.5,381.7,-52.1
LaPush,47.97,-124.95,7/18/2010,06:17:00,363.7,2,2.43,385.0,2,2.35,1020.1,14.6,105.56,12.7179,31.495,364.6,385.9,360.5,381.5,-21.0
LaPush,47.97,-124.95,7/18/2010,09:17:00,384.9,2,2.32,381.7,2,2.26,1019.8,14.0,105.15,12.4795,31.521,385.8,382.6,381.4,378.3,3.2
LaPush,47.97,-124.95,7/18/2010,12:17:00,389.1,2,2.27,382.8,2,2.21,1019.6,13.7,104.72,12.4085,31.513,390.0,383.6,385.5,379.2,6.3
LaPush,47.97,-124.95,7/18/2010,15:17:00,360.3,2,2.26,382.9,2,2.20,1020.0,13.5,105.02,12.5716,31.485,361.1,383.8,357.1,379.5,-22.4
LaPush,47.97,-124.95,7/18/2010,18:17:00,349.0,2,2.30,383.1,2,2.23,1020.7,13.6,105.38,12.5825,31.582,349.8,383.9,346.1,379.9,-33.8
LaPush,47.97,-124.95,7/18/2010,21:17:00,372.7,2,2.43,384.0,2,2.33,1020.9,14.3,105.38,12.7691,31.484,373.6,384.9,369.7,380.9,-11.2
LaPush,47.97,-124.95,7/19/2010,00:17:00,330.3,2,2.44,383.5,2,2.35,1020.5,15.0,106.06,12.8262,31.561,331.1,384.4,327.5,380.2,-52.7
LaPush,47.97,-124.95,7/19/2010,03:17:00,272.9,2,2.44,380.9,2,2.37,1020.4,14.6,106.17,13.5117,31.913,273.6,381.8,270.4,377.3,-106.9
LaPush,47.97,-124.95,7/19/2010,06:17:00,277.4,2,2.36,381.4,2,2.30,1021.0,14.1,106.20,13.3395,31.912,278.1,382.3,275.0,378.2,-103.1
LaPush,47.97,-124.95,7/19/2010,09:17:00,293.6,2,2.33,381.6,2,2.27,1021.2,13.8,105.63,13.489,31.926,294.3,382.5,291.1,378.3,-87.2
LaPush,47.97,-124.95,7/19/2010,12:17:00,295.1,2,2.28,382.0,2,2.23,1021.4,13.6,105.15,13.3965,31.933,295.8,382.8,292.7,378.8,-86.1
LaPush,47.97,-124.95,7/19/2010,15:17:00,298.5,2,2.26,382.0,2,2.21,1021.9,13.4,104.58,13.3878,31.920,299.2,382.9,296.2,379.0,-82.8
LaPush,47.97,-124.95,7/19/2010,18:17:00,289.1,2,2.32,381.7,2,2.25,1022.5,13.4,104.51,13.2364,31.927,289.8,382.6,287.1,379.0,-91.9
LaPush,47.97,-124.95,7/19/2010,21:17:00,289.3,2,2.43,381.6,2,2.34,1021.9,14.0,104.60,13.3351,31.926,290.1,382.5,287.1,378.6,-91.5
LaPush,47.97,-124.95,7/20/2010,00:17:00,288.0,2,2.45,381.2,2,2.36,1020.6,14.6,104.57,13.3387,31.928,288.8,382.1,285.5,377.8,-92.3
LaPush,47.97,-124.95,7/20/2010,03:17:00,282.7,2,2.43,381.5,2,2.35,1019.8,14.5,104.93,13.1056,31.928,283.4,382.4,280.0,377.9,-97.8
LaPush,47.97,-124.95,7/20/2010,06:17:00,277.0,2,2.33,382.6,2,2.26,1019.8,14.0,105.31,12.744,31.947,277.6,383.4,274.5,379.0,-104.6
LaPush,47.97,-124.95,7/20/2010,09:17:00,301.2,2,2.31,381.3,2,2.25,1019.1,13.5,105.00,12.8986,31.944,301.9,382.1,298.2,377.4,-79.2
LaPush,47.97,-124.95,7/20/2010,12:17:00,299.3,2,2.26,381.3,2,2.20,1018.1,13.3,104.71,13.021,31.933,299.9,382.1,295.9,377.0,-81.1
LaPush,47.97,-124.95,7/20/2010,15:17:00,300.3,2,2.28,380.9,2,2.22,1017.9,13.2,104.49,12.9605,31.934,301.0,381.8,296.9,376.6,-79.7
LaPush,47.97,-124.95,7/20/2010,18:17:00,281.5,2,2.30,381.1,2,2.23,1017.7,13.5,104.77,12.9059,31.898,282.1,382.0,278.3,376.8,-98.5
LaPush,47.97,-124.95,7/20/2010,21:17:00,267.7,2,2.42,381.8,2,2.34,1017.1,14.2,105.46,13.1859,31.867,268.4,382.7,264.5,377.2,-112.7
LaPush,47.97,-124.95,7/21/2010,00:17:00,258.9,2,2.41,383.9,2,2.33,1016.1,14.4,106.20,13.2599,31.861,259.5,384.8,255.5,378.8,-123.3
LaPush,47.97,-124.95,7/21/2010,03:17:00,268.6,2,2.32,383.6,2,2.26,1015.8,14.0,106.58,12.8182,31.965,269.2,384.5,265.0,378.5,-113.5
LaPush,47.97,-124.95,7/21/2010,06:17:00,274.4,2,2.26,383.5,2,2.20,1016.0,13.5,106.57,12.5869,31.985,275.0,384.3,270.9,378.5,-107.6
LaPush,47.97,-124.95,7/21/2010,09:17:00,278.0,2,2.25,382.5,2,2.19,1015.7,13.1,106.59,12.6259,31.940,278.6,383.3,274.3,377.4,-103.1
LaPush,47.97,-124.95,7/21/2010,12:17:00,276.5,2,2.22,381.6,2,2.17,1015.6,13.0,106.59,12.6906,31.941,277.1,382.4,272.8,376.5,-103.7
LaPush,47.97,-124.95,7/21/2010,15:17:00,286.6,2,2.26,381.5,2,2.20,1016.2,12.9,106.44,12.5833,31.868,287.2,382.3,282.9,376.6,-93.7
LaPush,47.97,-124.95,7/21/2010,18:17:00,256.8,2,2.34,383.6,2,2.28,1016.1,13.2,106.90,12.6126,31.901,257.4,384.5,253.5,378.7,-125.2
LaPush,47.97,-124.95,7/21/2010,21:17:00,253.6,2,2.44,382.4,2,2.36,1016.2,14.0,107.40,12.6351,31.936,254.3,383.3,250.4,377.5,-127.1
LaPush,47.97,-124.95,7/22/2010,00:17:00,240.6,2,2.35,380.0,2,2.29,1015.4,14.6,108.28,12.955,31.816,241.1,380.9,237.3,374.8,-137.5
LaPush,47.97,-124.95,7/22/2010,03:17:00,240.5,2,2.39,383.1,2,2.34,1014.8,14.2,109.06,12.8613,31.800,241.1,384.0,237.1,377.7,-140.6
LaPush,47.97,-124.95,7/22/2010,06:17:00,249.1,2,2.36,385.5,2,2.32,1015.1,13.9,109.55,12.6855,31.788,249.7,386.4,245.7,380.2,-134.5
LaPush,47.97,-124.95,7/22/2010,09:17:00,277.9,2,2.32,383.4,2,2.27,1014.9,13.7,109.04,12.4551,31.822,278.5,384.3,274.1,378.1,-104.0
LaPush,47.97,-124.95,7/22/2010,12:17:00,292.7,2,2.33,383.4,2,2.27,1015.1,13.5,108.50,12.4868,31.754,293.4,384.2,288.8,378.1,-89.4
LaPush,47.97,-124.95,7/22/2010,15:17:00,314.9,2,2.25,383.7,2,2.21,1015.3,13.4,107.71,12.3777,31.746,315.6,384.6,310.6,378.5,-67.9
LaPush,47.97,-124.95,7/22/2010,18:17:00,309.0,2,2.37,384.3,2,2.31,1015.7,13.4,107.12,12.3419,31.777,309.7,385.2,305.0,379.4,-74.4
LaPush,47.97,-124.95,7/22/2010,21:17:00,330.5,2,2.38,383.4,2,2.33,1017.2,14.2,106.57,12.0503,31.897,331.3,384.3,326.9,379.1,-52.3
LaPush,47.97,-124.95,7/23/2010,00:17:00,354.7,2,2.46,383.1,2,2.38,1018.2,14.4,105.82,11.8095,31.932,355.6,384.0,351.3,379.3,-28.0
LaPush,47.97,-124.95,7/23/2010,03:17:00,364.9,2,2.50,383.4,2,2.42,1018.0,14.3,105.27,11.9971,31.862,365.9,384.4,361.2,379.5,-18.3
LaPush,47.97,-124.95,7/23/2010,06:17:00,367.2,2,2.29,383.7,2,2.23,1017.9,13.7,104.70,12.0085,31.841,368.1,384.6,363.4,379.7,-16.3
LaPush,47.97,-124.95,7/23/2010,09:17:00,463.2,2,2.24,384.3,2,2.18,1018.7,13.1,103.43,11.4224,31.932,464.2,385.1,458.9,380.7,78.2
LaPush,47.97,-124.95,7/23/2010,12:17:00,517.8,2,2.19,384.4,2,2.14,1019.8,12.9,101.81,11.0583,31.927,518.9,385.2,513.7,381.3,132.4
LaPush,47.97,-124.95,7/23/2010,15:17:00,414.3,2,2.17,389.1,2,2.12,1021.0,12.8,101.62,11.7119,31.847,415.2,389.9,411.2,386.2,25.0
LaPush,47.97,-124.95,7/23/2010,18:17:00,506.5,2,2.19,388.7,2,2.13,1022.1,13.2,100.61,11.1707,31.950,507.6,389.5,503.5,386.4,117.1
LaPush,47.97,-124.95,7/23/2010,21:17:00,379.4,2,2.22,386.5,2,2.16,1022.0,13.8,101.03,11.6378,32.014,380.3,387.3,377.1,384.1,-7.0
LaPush,47.97,-124.95,7/24/2010,00:17:00,283.4,2,2.27,384.1,2,2.22,1020.8,13.9,102.46,12.073,32.075,284.0,384.9,281.2,381.1,-99.9
LaPush,47.97,-124.95,7/24/2010,03:17:00,282.0,2,2.30,384.9,2,2.25,1019.9,13.4,103.71,11.959,32.065,282.7,385.7,279.7,381.6,-101.9
LaPush,47.97,-124.95,7/24/2010,06:17:00,315.6,2,2.23,387.8,2,2.18,1019.8,13.1,104.09,11.7336,32.062,316.3,388.7,313.0,384.5,-71.5
LaPush,47.97,-124.95,7/24/2010,09:17:00,296.0,2,2.19,388.1,2,2.15,1019.6,12.9,104.72,11.8701,32.085,296.7,388.9,293.4,384.6,-91.2
LaPush,47.97,-124.95,7/24/2010,12:17:00,314.5,2,2.19,387.5,2,2.14,1019.2,12.8,104.70,11.6209,32.106,315.2,388.3,311.7,384.0,-72.3
LaPush,47.97,-124.95,7/24/2010,15:17:00,416.8,2,2.25,389.0,2,2.19,1019.3,12.8,103.68,11.3534,32.058,417.7,389.9,413.2,385.6,27.5
LaPush,47.97,-124.95,7/24/2010,18:17:00,444.5,2,2.29,387.7,2,2.24,1019.2,13.7,103.06,11.6447,32.048,445.5,388.6,440.6,384.3,56.3
LaPush,47.97,-124.95,7/24/2010,21:17:00,383.2,2,2.34,386.3,2,2.28,1018.4,15.2,103.42,12.0818,32.138,384.1,387.2,379.3,382.4,-3.1
LaPush,47.97,-124.95,7/25/2010,00:17:00,432.0,2,2.57,383.6,2,2.47,1017.5,15.2,102.95,11.6504,32.115,433.1,384.6,427.5,379.6,47.9
LaPush,47.97,-124.95,7/25/2010,03:17:00,471.6,2,2.52,383.5,2,2.43,1015.9,14.5,102.18,11.6742,32.109,472.8,384.5,466.0,378.9,87.0
LaPush,47.97,-124.95,7/25/2010,06:17:00,491.9,2,2.34,383.6,2,2.26,1015.2,13.5,101.30,11.4743,32.148,493.1,384.5,485.7,378.8,106.9
LaPush,47.97,-124.95,7/25/2010,09:17:00,542.2,2,2.25,384.0,2,2.18,1014.4,12.8,100.14,11.2613,32.218,543.4,384.9,535.0,378.9,156.1
LaPush,47.97,-124.95,7/25/2010,12:17:00,507.7,2,2.13,384.1,2,2.07,1014.2,12.4,99.54,11.2256,32.153,508.8,384.9,500.8,378.9,122.0
LaPush,47.97,-124.95,7/25/2010,15:17:00,522.6,2,2.07,398.9,3,2.02,1014.7,12.3,99.18,11.2259,32.233,523.7,399.7,515.7,393.6,122.1
LaPush,47.97,-124.95,7/25/2010,18:17:00,498.6,2,2.13,388.8,2,2.09,1014.6,12.5,99.20,11.4798,32.156,499.7,389.6,492.0,383.6,108.4
LaPush,47.97,-124.95,7/25/2010,21:17:00,506.8,2,2.23,388.4,2,2.15,1014.1,13.7,99.46,12.2279,32.076,507.9,389.2,499.5,382.7,116.7
LaPush,47.97,-124.95,7/26/2010,00:17:00,486.9,2,2.30,384.2,2,2.25,1013.0,15.5,99.62,11.7684,32.095,488.0,385.0,479.6,378.4,101.2
LaPush,47.97,-124.95,7/26/2010,03:17:00,497.2,2,2.58,381.5,2,2.49,1011.7,15.4,99.96,12.2277,32.117,498.5,382.5,489.0,375.2,113.8
LaPush,47.97,-124.95,7/26/2010,06:17:00,498.6,2,2.43,381.7,2,2.36,1011.8,14.3,100.07,11.9135,32.069,499.8,382.6,490.5,375.4,115.1
LaPush,47.97,-124.95,7/26/2010,09:17:00,506.3,2,2.34,381.1,2,2.27,1011.2,13.5,99.96,11.6766,32.114,507.5,381.9,497.8,374.7,123.1
LaPush,47.97,-124.95,7/26/2010,12:17:00,517.1,2,2.27,382.0,2,2.20,1010.9,13.0,99.76,11.6601,32.134,518.2,382.9,508.2,375.5,132.8
LaPush,47.97,-124.95,7/26/2010,15:17:00,510.3,2,2.29,382.3,2,2.23,1011.7,12.8,99.75,11.6987,32.154,511.5,383.1,502.0,376.0,126.0
LaPush,47.97,-124.95,7/26/2010,18:17:00,498.0,2,2.26,382.0,2,2.19,1011.3,13.2,99.99,11.7677,32.026,499.2,382.8,489.7,375.5,114.1
LaPush,47.97,-124.95,7/26/2010,21:17:00,478.4,2,2.37,381.5,2,2.28,1010.6,14.3,100.50,11.8812,31.963,479.5,382.4,470.0,374.8,95.2
LaPush,47.97,-124.95,7/27/2010,00:17:00,412.4,2,2.52,381.9,2,2.41,1009.8,15.1,102.06,12.5564,31.903,413.5,382.8,404.7,374.7,30.0
LaPush,47.97,-124.95,7/27/2010,03:17:00,418.3,2,2.41,382.0,2,2.34,1009.6,15.0,102.99,12.2132,31.949,419.3,382.9,410.4,374.8,35.6
LaPush,47.97,-124.95,7/27/2010,06:17:00,363.8,2,2.34,381.5,2,2.27,1010.1,14.2,104.41,12.4731,31.897,364.6,382.4,357.1,374.5,-17.4
LaPush,47.97,-124.95,7/27/2010,09:17:00,277.3,2,2.22,382.1,2,2.17,1010.2,13.5,107.66,12.6008,31.880,277.9,382.9,272.1,375.0,-102.8
LaPush,47.97,-124.95,7/27/2010,12:17:00,296.0,2,2.20,382.9,2,2.15,1011.1,13.0,109.45,12.4277,31.896,296.6,383.7,290.8,376.1,-85.4
LaPush,47.97,-124.95,7/27/2010,15:17:00,323.9,2,2.23,381.0,2,2.18,1012.1,12.9,109.78,12.109,31.927,324.6,381.8,318.6,374.8,-56.2
LaPush,47.97,-124.95,7/27/2010,18:17:00,311.5,2,2.29,381.3,2,2.24,1012.7,13.0,110.40,11.9271,31.947,312.3,382.2,306.7,375.4,-68.7
LaPush,47.97,-124.95,7/27/2010,21:17:00,216.3,2,2.34,383.2,2,2.28,1013.1,13.5,113.11,12.5849,31.857,216.8,384.1,212.9,377.2,-164.3
LaPush,47.97,-124.95,7/28/2010,00:17:00,282.8,2,2.39,384.8,2,2.33,1013.1,14.0,113.24,12.9196,31.933,283.4,385.7,278.3,378.6,-100.4
LaPush,47.97,-124.95,7/28/2010,03:17:00,275.5,2,2.27,384.9,2,2.23,1013.1,14.0,113.45,12.6776,31.918,276.1,385.8,271.1,378.8,-107.7
LaPush,47.97,-124.95,7/28/2010,06:17:00,276.6,2,2.23,384.6,2,2.18,1014.2,13.6,113.45,12.6899,31.920,277.3,385.4,272.5,378.8,-106.3
LaPush,47.97,-124.95,7/28/2010,09:17:00,249.4,2,2.21,384.7,2,2.16,1014.6,13.2,113.54,12.8688,31.948,250.0,385.5,245.8,379.1,-133.3
LaPush,47.97,-124.95,7/28/2010,12:17:00,267.2,2,2.19,387.3,2,2.14,1014.9,13.1,113.19,12.4916,32.006,267.8,388.2,263.5,381.9,-118.4
LaPush,47.97,-124.95,7/28/2010,15:17:00,278.2,2,2.23,386.3,2,2.18,1016.0,12.9,112.59,12.6836,31.981,278.8,387.1,274.6,381.2,-106.7
LaPush,47.97,-124.95,7/28/2010,18:17:00,342.3,2,2.28,386.6,2,2.22,1016.5,13.0,111.18,12.6545,31.911,343.1,387.4,338.1,381.7,-43.7
LaPush,47.97,-124.95,7/28/2010,21:17:00,330.0,2,2.31,387.4,2,2.23,1016.8,13.5,110.30,12.8053,31.923,330.8,388.2,326.0,382.6,-56.6
LaPush,47.97,-124.95,7/29/2010,00:17:00,212.8,2,2.30,386.8,2,2.24,1016.5,14.1,112.25,12.9134,31.979,213.3,387.7,210.1,381.9,-171.8
LaPush,47.97,-124.95,7/29/2010,03:17:00,238.1,2,2.27,389.2,2,2.21,1016.7,13.9,111.45,12.9043,32.230,238.6,390.1,235.1,384.4,-149.3
LaPush,47.97,-124.95,7/29/2010,06:17:00,229.8,2,2.28,387.2,2,2.22,1017.7,13.5,110.93,13.0405,32.148,230.3,388.0,227.1,382.7,-155.6
LaPush,47.97,-124.95,7/29/2010,09:17:00,226.1,2,2.23,387.9,2,2.19,1018.2,13.3,110.81,12.9811,32.104,226.6,388.7,223.6,383.5,-160.0
LaPush,47.97,-124.95,7/29/2010,12:17:00,220.2,2,2.21,388.4,2,2.16,1018.5,13.2,110.56,12.5957,32.115,220.7,389.2,217.9,384.3,-166.4
LaPush,47.97,-124.95,7/29/2010,15:17:00,207.3,2,2.22,388.2,2,2.17,1019.4,13.0,111.09,12.847,32.018,207.7,389.1,205.2,384.4,-179.2
LaPush,47.97,-124.95,7/29/2010,18:17:00,213.1,2,2.28,388.0,2,2.22,1019.4,13.3,111.35,13.2097,32.048,213.5,388.9,210.9,384.1,-173.2
LaPush,47.97,-124.95,7/29/2010,21:17:00,211.9,2,2.42,388.5,2,2.35,1018.9,14.4,111.92,13.1426,32.034,212.5,389.4,209.8,384.4,-174.7
LaPush,47.97,-124.95,7/30/2010,00:17:00,218.4,2,2.48,388.4,2,2.41,1018.0,15.2,112.07,13.1107,32.098,218.9,389.3,215.9,384.0,-168.1
LaPush,47.97,-124.95,7/30/2010,03:17:00,222.4,2,2.35,388.6,2,2.30,1017.4,14.8,111.53,12.7279,32.174,222.9,389.5,219.8,384.1,-164.3
LaPush,47.97,-124.95,7/30/2010,06:17:00,219.8,2,2.29,384.2,2,2.23,1017.5,13.8,111.40,12.8277,32.097,220.3,385.1,217.3,379.8,-162.5
LaPush,47.97,-124.95,7/30/2010,09:17:00,232.9,2,2.29,384.4,2,2.24,1017.2,13.4,110.88,12.4268,32.162,233.4,385.3,230.2,379.9,-149.8
LaPush,47.97,-124.95,7/30/2010,12:17:00,230.2,2,2.26,385.4,2,2.21,1016.8,13.3,110.14,12.4578,32.176,230.8,386.2,227.5,380.7,-153.2
LaPush,47.97,-124.95,7/30/2010,15:17:00,235.8,2,2.25,385.3,2,2.20,1017.1,13.1,109.61,12.3183,32.186,236.3,386.1,233.1,380.8,-147.7
LaPush,47.97,-124.95,7/30/2010,18:17:00,253.1,2,2.30,385.3,2,2.25,1017.4,13.2,109.00,12.0674,32.212,253.7,386.2,250.3,381.0,-130.7
LaPush,47.97,-124.95,7/30/2010,21:17:00,254.7,2,2.41,386.2,2,2.34,1016.9,13.9,108.51,12.16,32.240,255.3,387.1,251.8,381.7,-130.0
LaPush,47.97,-124.95,7/31/2010,00:17:00,230.4,2,2.48,387.1,2,2.41,1015.7,14.5,108.80,12.6034,32.173,230.9,388.1,227.4,382.1,-154.7
LaPush,47.97,-124.95,7/31/2010,03:17:00,234.3,2,2.35,385.7,2,2.29,1015.2,14.4,108.33,12.6295,32.286,234.9,386.6,231.1,380.4,-149.3
LaPush,47.97,-124.95,7/31/2010,06:17:00,233.2,2,2.26,385.2,2,2.20,1015.5,13.7,108.18,12.626,32.223,233.8,386.0,230.1,380.0,-149.9
LaPush,47.97,-124.95,7/31/2010,09:17:00,239.5,2,2.21,385.2,2,2.16,1015.2,13.2,108.25,12.4015,32.167,240.0,386.0,236.2,379.9,-143.7
LaPush,47.97,-124.95,7/31/2010,12:17:00,244.6,2,2.19,387.3,2,2.14,1014.2,12.9,108.10,12.3538,32.190,245.1,388.1,241.1,381.6,-140.6
LaPush,47.97,-124.95,7/31/2010,15:17:00,240.5,2,2.20,386.6,2,2.16,1015.1,12.8,107.66,12.3837,32.259,241.0,387.5,237.2,381.3,-144.2
LaPush,47.97,-124.95,7/31/2010,18:17:00,251.9,2,2.26,385.9,2,2.21,1015.8,13.0,107.58,12.3377,32.131,252.4,386.8,248.6,380.9,-132.3
LaPush,47.97,-124.95,7/31/2010,21:17:00,257.9,2,2.30,385.9,2,2.24,1015.6,13.3,107.23,12.0998,32.246,258.5,386.8,254.6,380.9,-126.4
LaPush,47.97,-124.95,8/1/2010,00:17:00,284.1,2,2.33,386.3,2,2.28,1014.8,13.6,106.81,11.9226,32.208,284.8,387.2,280.3,381.1,-100.8
LaPush,47.97,-124.95,8/1/2010,03:17:00,273.6,2,2.34,387.5,2,2.29,1015.4,13.6,106.64,12.1606,32.226,274.2,388.4,270.0,382.4,-112.4
LaPush,47.97,-124.95,8/1/2010,06:17:00,286.1,2,2.33,387.8,2,2.29,1015.6,13.6,106.08,11.9451,32.266,286.8,388.7,282.5,382.9,-100.3
LaPush,47.97,-124.95,8/1/2010,09:17:00,284.4,2,2.30,387.6,2,2.25,1016.2,13.5,105.79,11.8109,32.267,285.0,388.5,281.0,383.0,-102.0
LaPush,47.97,-124.95,8/1/2010,12:17:00,290.3,2,2.29,387.7,2,2.24,1016.4,13.3,105.23,11.8616,32.293,291.0,388.5,286.9,383.1,-96.2
LaPush,47.97,-124.95,8/1/2010,15:17:00,241.0,2,2.30,387.6,2,2.25,1017.0,13.3,105.22,12.4581,32.263,241.6,388.4,238.2,383.0,-144.8
LaPush,47.97,-124.95,8/1/2010,18:17:00,241.4,2,2.31,386.9,2,2.26,1017.9,13.4,105.22,12.4296,32.265,242.0,387.7,238.8,382.7,-143.9
LaPush,47.97,-124.95,8/1/2010,21:17:00,252.2,2,2.32,386.6,2,2.27,1017.8,13.7,105.20,12.4339,32.262,252.8,387.5,249.4,382.4,-133.0
LaPush,47.97,-124.95,8/2/2010,00:17:00,232.7,2,2.50,386.6,2,2.43,1017.2,14.4,105.37,12.8327,32.265,233.3,387.5,230.0,382.0,-152.0
LaPush,47.97,-124.95,8/2/2010,03:17:00,251.3,2,2.31,386.8,2,2.26,1016.9,14.4,105.36,12.3759,32.305,251.9,387.7,248.3,382.2,-133.9
LaPush,47.97,-124.95,8/2/2010,06:17:00,247.5,2,2.24,386.4,2,2.19,1017.9,13.8,105.38,12.4673,32.228,248.0,387.3,244.8,382.2,-137.4
LaPush,47.97,-124.95,8/2/2010,09:17:00,250.1,2,2.18,386.1,2,2.13,1017.7,13.2,105.19,12.4873,32.243,250.6,387.0,247.3,381.8,-134.5
LaPush,47.97,-124.95,8/2/2010,12:17:00,256.5,2,2.15,386.6,2,2.10,1017.4,12.9,104.95,12.384,32.260,257.0,387.4,253.5,382.1,-128.6
LaPush,47.97,-124.95,8/2/2010,15:17:00,243.5,2,2.16,386.5,2,2.11,1018.2,12.7,105.15,12.3948,32.240,244.1,387.3,240.9,382.4,-141.4
LaPush,47.97,-124.95,8/2/2010,18:17:00,235.7,2,2.29,386.4,2,2.23,1018.5,12.9,105.58,12.4514,32.242,236.3,387.3,233.3,382.5,-149.2
LaPush,47.97,-124.95,8/2/2010,21:17:00,246.9,2,2.35,385.9,2,2.27,1018.2,13.6,106.09,12.731,32.159,247.5,386.8,244.2,381.8,-137.6
LaPush,47.97,-124.95,8/3/2010,00:17:00,245.9,2,2.50,386.3,2,2.42,1017.3,14.9,106.57,13.1235,32.169,246.5,387.2,243.0,381.7,-138.7
LaPush,47.97,-124.95,8/3/2010,03:17:00,245.5,2,2.41,386.5,2,2.34,1017.0,14.9,106.55,12.7583,32.267,246.1,387.4,242.5,381.9,-139.3
LaPush,47.97,-124.95,8/3/2010,06:17:00,247.7,2,2.29,385.9,2,2.23,1017.7,14.2,106.49,12.7355,32.258,248.2,386.8,244.9,381.5,-136.7
LaPush,47.97,-124.95,8/3/2010,09:17:00,255.2,2,2.24,386.4,2,2.19,1017.4,13.5,106.40,12.5945,32.193,255.8,387.3,252.3,382.0,-129.7
LaPush,47.97,-124.95,8/3/2010,12:17:00,260.4,2,2.24,384.5,2,2.19,1017.3,13.2,106.31,12.5093,32.183,261.0,385.4,257.4,380.1,-122.7
LaPush,47.97,-124.95,8/3/2010,15:17:00,258.0,2,2.25,384.5,2,2.19,1018.1,13.1,106.16,12.4702,32.201,258.6,385.3,255.2,380.3,-125.1
LaPush,47.97,-124.95,8/3/2010,18:17:00,256.7,2,2.33,384.9,2,2.27,1018.6,13.3,106.18,12.5956,32.241,257.3,385.8,254.1,381.0,-126.8
LaPush,47.97,-124.95,8/3/2010,21:17:00,265.6,2,2.40,386.4,2,2.32,1018.4,14.0,106.10,12.239,32.316,266.2,387.3,262.9,382.5,-119.5
LaPush,47.97,-124.95,8/4/2010,00:17:00,265.8,2,2.47,384.3,2,2.39,1017.6,14.9,106.20,12.5322,32.267,266.5,385.3,262.9,380.1,-117.2
LaPush,47.97,-124.95,8/4/2010,03:17:00,264.5,2,2.46,384.4,2,2.39,1017.3,15.0,106.19,12.7479,32.239,265.1,385.3,261.4,379.9,-118.5
LaPush,47.97,-124.95,8/4/2010,06:17:00,269.7,2,2.38,384.5,2,2.32,1017.7,14.4,106.20,12.8474,32.197,270.3,385.4,266.6,380.1,-113.5
LaPush,47.97,-124.95,8/4/2010,09:17:00,251.0,2,2.30,384.6,2,2.24,1017.2,13.9,106.27,12.6659,32.262,251.6,385.4,248.1,380.1,-132.0
LaPush,47.97,-124.95,8/4/2010,12:17:00,313.1,2,2.21,385.4,2,2.15,1016.9,13.3,105.91,12.5859,32.162,313.8,386.2,309.3,380.8,-71.5
LaPush,47.97,-124.95,8/4/2010,15:17:00,303.9,2,2.19,385.7,2,2.14,1017.3,13.0,105.62,12.6974,32.163,304.6,386.6,300.4,381.2,-80.8
LaPush,47.97,-124.95,8/4/2010,18:17:00,267.0,2,2.34,385.4,2,2.28,1017.1,13.1,105.78,12.7771,32.276,267.6,386.3,263.8,380.8,-117.0
LaPush,47.97,-124.95,8/4/2010,21:17:00,232.3,2,2.50,385.2,2,2.46,1016.1,14.1,106.41,12.9335,32.433,232.9,386.1,229.3,380.2,-150.9
LaPush,47.97,-124.95,8/5/2010,00:17:00,239.9,2,2.46,383.9,2,2.39,1014.5,15.4,106.92,12.9798,32.446,240.5,384.8,236.5,378.3,-141.8
LaPush,47.97,-124.95,8/5/2010,03:17:00,243.4,2,2.45,384.2,2,2.38,1013.9,15.2,107.18,12.888,32.421,244.0,385.1,239.7,378.4,-138.7
LaPush,47.97,-124.95,8/5/2010,06:17:00,243.7,2,2.31,384.9,2,2.25,1014.1,14.3,107.25,12.6246,32.466,244.2,385.7,240.1,379.2,-139.1
LaPush,47.97,-124.95,8/5/2010,09:17:00,246.7,2,2.27,382.8,2,2.21,1013.6,13.6,107.38,12.6602,32.494,247.2,383.6,242.9,376.9,-134.0
LaPush,47.97,-124.95,8/5/2010,12:17:00,233.7,2,2.22,383.3,2,2.16,1013.4,13.2,107.59,12.8638,32.440,234.2,384.1,230.0,377.2,-147.2
LaPush,47.97,-124.95,8/5/2010,15:17:00,235.8,2,2.23,383.3,2,2.18,1013.7,13.0,107.60,12.8346,32.438,236.3,384.1,232.2,377.4,-145.2
LaPush,47.97,-124.95,8/5/2010,18:17:00,258.0,2,2.39,384.9,2,2.34,1013.4,13.2,107.37,12.2578,32.479,258.6,385.8,254.1,379.1,-125.0
LaPush,47.97,-124.95,8/5/2010,21:17:00,283.6,2,2.48,384.8,2,2.41,1013.0,14.0,107.08,12.5602,32.419,284.3,385.7,279.2,378.8,-99.6
LaPush,47.97,-124.95,8/6/2010,00:17:00,286.7,2,2.50,384.8,2,2.43,1012.1,14.7,107.04,12.5483,32.409,287.4,385.7,282.0,378.4,-96.5
LaPush,47.97,-124.95,8/6/2010,03:17:00,265.3,2,2.38,386.0,2,2.32,1011.4,14.4,107.00,12.402,32.463,266.0,386.9,260.8,379.4,-118.6
LaPush,47.97,-124.95,8/6/2010,06:17:00,250.6,2,2.37,387.4,2,2.32,1012.2,14.0,106.97,12.7574,32.468,251.2,388.3,246.4,380.9,-134.5
LaPush,47.97,-124.95,8/6/2010,09:17:00,248.0,2,2.35,387.5,2,2.29,1012.2,13.7,107.09,12.694,32.413,248.6,388.4,243.9,381.0,-137.1
LaPush,47.97,-124.95,8/6/2010,12:17:00,281.2,2,2.31,387.0,2,2.26,1012.5,13.6,106.77,12.33,32.329,281.8,387.9,276.7,380.8,-104.1
LaPush,47.97,-124.95,8/6/2010,15:17:00,281.1,2,2.27,387.2,2,2.22,1013.0,13.4,106.56,12.3445,32.301,281.8,388.1,276.8,381.2,-104.4
LaPush,47.97,-124.95,8/6/2010,18:17:00,289.5,2,2.35,387.1,2,2.29,1014.3,13.4,106.40,12.2986,32.270,290.1,388.0,285.3,381.6,-96.3
LaPush,47.97,-124.95,8/6/2010,21:17:00,315.1,2,2.40,387.1,2,2.35,1014.8,14.2,106.49,12.4513,32.259,315.9,388.1,310.8,381.8,-71.0
LaPush,47.97,-124.95,8/7/2010,00:17:00,280.4,2,2.47,387.1,2,2.42,1014.5,14.7,106.69,12.3112,32.300,281.0,388.1,276.5,381.7,-105.3
LaPush,47.97,-124.95,8/7/2010,03:17:00,277.6,2,2.41,386.9,2,2.36,1013.8,14.5,107.58,12.4512,32.123,278.3,387.8,273.5,381.2,-107.7
LaPush,47.97,-124.95,8/7/2010,06:17:00,261.8,2,2.41,386.6,2,2.36,1013.7,14.1,107.97,12.5039,32.153,262.5,387.5,257.9,380.8,-122.9
LaPush,47.97,-124.95,8/7/2010,09:17:00,270.2,2,2.41,386.7,2,2.36,1012.9,14.0,107.68,12.3852,32.295,270.8,387.6,265.9,380.7,-114.7
LaPush,47.97,-124.95,8/7/2010,12:17:00,277.0,2,2.38,387.0,2,2.34,1011.8,14.0,107.13,12.1189,32.375,277.6,388.0,272.4,380.7,-108.2